Simultaneous Nadir Overpasses (SNOs) Predictions

Prediction of SNOs near equator between AQUA and NPP Satellite Orbit:

Table of predicted SNOs near equator for the next 14.0 days since TLE Epoch: 11/22/2019
Index Date (AQUA) Time (AQUA) AQUA Lat,Lon Date (NPP) Time (NPP) NPP Lat,Lon Distance(km) Time Diff (sec)
1 11/25/2019 00:08:50 4.73,-159.05 11/24/2019 23:59:15 4.70,-159.29 27.09 575
2 11/25/2019 00:56:59 -0.27, 9.56 11/25/2019 00:48:38 -0.15, 9.06 56.82 501
3 11/25/2019 01:45:13 -4.34, 178.16 11/25/2019 01:38:08 -4.52, 177.40 86.91 425
4 11/27/2019 16:24:54 3.25, -42.85 11/27/2019 16:15:43 3.19, -43.18 37.13 551
5 11/27/2019 17:13:03 1.21, 125.76 11/27/2019 17:05:06 1.36, 125.17 67.02 477
6 11/27/2019 18:01:16 -5.88, -65.62 11/27/2019 17:54:36 -6.03, -66.49 96.84 400
7 11/30/2019 07:53:48 -10.30, -96.10 11/30/2019 07:43:48 -10.34, -96.31 23.03 600
8 11/30/2019 08:40:57 1.77, 73.35 11/30/2019 08:32:10 1.68, 72.94 47.35 527
9 11/30/2019 09:29:06 2.69,-118.05 11/30/2019 09:21:34 2.82,-118.73 77.16 452
10 12/03/2019 00:08:47 -4.91, 20.94 12/02/2019 23:59:09 -4.89, 20.69 27.41 578
11 12/03/2019 00:57:01 0.30,-170.45 12/03/2019 00:48:39 0.22,-170.97 57.74 502
12 12/03/2019 01:45:10 4.16, -1.85 12/03/2019 01:38:02 4.33, -2.62 87.24 428
13 12/05/2019 16:24:51 -3.45, 137.14 12/05/2019 16:15:37 -3.38, 136.81 37.52 554
14 12/05/2019 17:13:05 -1.16, -54.26 12/05/2019 17:05:07 -1.29, -54.86 67.91 478
15 12/05/2019 18:01:13 5.68, 114.36 12/05/2019 17:54:30 5.84, 113.49 97.25 403




NCC Satellite Simultaneous Nadir Overpasses (SNOs) Prediction Service
